Lid_Strength_Index
6 5 5 6 5 5 6 6 6 6 6 7 7 8 7 6 6 6 5 5 5 5 6 6 6 6 7 7 7 7 8 8 7 8 8 8 8 8 7 5 4 2 3
7 5 5 6 6 6 6 6 6 6 7 7 7 7 7 7 6 6 6 5 5 5 6 6 7 7 7 7 7 6 7 7 7 8 9 11 9 8 7 7 6 6 3
7 7 6 6 6 6 6 6 6 6 6 7 7 7 7 7 8 7 7 6 6 5 6 6 6 7 7 7 7 7 7 8 7 7 8 10 11 9 8 8 8 7 6
7 7 7 8 7 6 6 6 5 6 6 6 8 8 8 8 8 7 7 7 5 5 5 5 6 6 6 6 6 5 6 7 8 7 5 7 8 9 10 9 8 8 7
8 7 7 7 7 6 6 5 5 5 5 6 7 8 8 7 7 7 7 7 6 5 5 6 6 6 6 6 7 7 7 6 6 6 6 7 7 8 9 11 9 8 8
8 7 7 6 6 6 6 5 5 5 5 5 5 6 7 7 7 7 7 7 6 6 6 6 7 6 7 7 7 7 7 7 7 6 6 7 8 8 9 10 10 10 9
8 7 8 7 7 6 6 6 6 6 5 5 5 6 6 6 7 7 7 8 7 7 7 6 6 6 6 6 6 6 6 7 7 7 7 6 7 7 8 9 10 11 10
7 7 7 7 7 6 6 6 5 5 5 5 5 5 5 5 6 6 7 8 8 6 6 6 6 6 6 5 5 6 6 7 7 8 8 7 6 6 7 8 9 11 11
6 7 7 6 6 6 6 6 6 5 5 5 6 6 6 6 7 8 9 8 7 6 6 6 6 6 5 5 6 6 7 7 7 7 7 7 7 7 7 7 7 9 12
7 6 7 6 6 6 6 6 6 6 6 6 7 7 7 8 8 8 8 7 7 6 6 6 6 6 6 6 6 7 7 7 7 7 8 8 7 7 7 7 7 8 9
7 7 6 6 6 6 6 6 5 5 7 7 7 8 8 8 8 7 7 7 7 6 6 6 6 6 6 6 6 7 7 8 8 8 9 8 8 8 8 7 7 8 8
6 6 6 6 6 6 6 5 5 5 7 8 8 9 9 9 9 8 7 7 7 6 6 6 6 6 6 6 7 8 8 9 9 9 9 9 7 8 8 8 8 8 8
6 6 6 5 6 6 5 5 5 7 8 9 9 9 9 9 9 8 7 7 7 6 6 6 6 6 7 7 8 8 8 8 8 8 8 8 8 8 8 8 8 8 7
6 6 6 6 6 6 5 6 7 7 8 9 9 10 9 9 8 7 8 7 6 7 7 7 7 7 8 8 8 7 8 8 8 8 8 8 8 9 9 9 9 8 9
6 6 6 6 6 6 5 6 8 7 8 8 9 8 8 7 6 6 7 7 7 7 7 7 8 8 8 7 8 8 9 9 9 8 8 7 6 5 5 6 7 8 8
6 6 5 6 5 5 6 7 7 7 6 7 7 6 6 6 6 7 6 7 7 8 8 9 9 8 7 6 6 7 9 9 8 8 8 7 6 6 6 6 6 7 8
6 6 6 6 6 6 7 8 7 6 6 6 6 5 5 5 5 6 6 7 8 9 10 9 9 9 9 6 6 6 8 8 8 9 9 9 8 8 8 8 7 7 7
6 6 6 6 7 8 8 7 6 6 6 6 5 5 5 6 7 7 8 9 10 10 10 10 10 10 9 7 6 6 7 9 9 9 9 9 9 9 9 9 10 9 9
6 6 6 7 8 8 7 7 7 6 5 5 5 6 8 8 8 9 10 10 10 10 10 10 10 10 9 7 6 7 8 9 9 8 8 8 9 8 7 9 10 10 10
6 6 7 8 8 8 6 7 6 5 6 7 8 8 7 8 9 10 11 10 10 10 10 9 9 8 9 7 7 7 9 10 10 10 10 9 9 8 8 9 9 10 10
6 7 7 7 6 6 6 7 7 9 8 7 7 7 8 9 9 10 10 11 11 10 13 13 10 9 9 9 8 8 10 10 10 10 10 10 9 8 8 8 9 9 9
7 7 7 6 7 5 6 6 9 8 7 7 8 8 8 9 9 11 11 10 11 13 16 14 12 10 11 9 8 9 9 9 10 10 10 10 9 8 8 8 8 8 8
8 7 8 6 6 5 7 8 8 7 8 8 9 9 9 9 10 11 11 11 12 14 15 12 11 11 10 10 9 9 9 8 9 9 9 8 8 8 8 8 8 9 9
8 8 6 6 6 5 7 7 7 7 8 9 9 9 10 10 10 10 10 13 14 14 11 11 11 11 10 11 10 9 9 8 9 9 10 10 10 10 10 10 9 8 8
8 7 6 6 5 7 7 7 7 8 9 9 10 10 10 11 10 10 11 11 11 12 10 9 10 11 12 11 9 9 9 9 9 10 12 12 13 12 11 11 10 10 11
7 6 5 6 6 6 7 8 8 9 10 10 10 11 12 12 11 12 11 8 7 7 6 7 9 10 10 8 8 8 8 8 8 11 15 15 14 13 12 12 11 10 11